This is the latest recevied weather packets stored in our database for station/object VY2CRA-4. If no packets are shown the sender has not sent any weather packets the latest 10 day(s).
| Time | Temp. | Humidity | Pressure | Rain* | Wind** | Luminosity | Snow |
|---|---|---|---|---|---|---|---|
| 1788252415 | 17.78° C | 49% | 1013.1 hPa | 0 mm | - | - | - |
| 1788251214 | 17.78° C | 49% | 1013.3 hPa | 0 mm | - | - | - |
| 1788250013 | 17.22° C | 50% | 1013.1 hPa | 0 mm | - | - | - |
| 1788246410 | 16.67° C | 50% | 1012.8 hPa | 0 mm | - | - | - |
| 1788245210 | 16.11° C | 49% | 1013 hPa | 0 mm | - | - | - |
| 1788244008 | 16.11° C | 49% | 1013 hPa | 0 mm | - | - | - |
| 1788242808 | 16.11° C | 49% | 1012.8 hPa | 0 mm | - | - | - |
| 1788241607 | 16.11° C | 48% | 1012.9 hPa | 0 mm | - | - | - |
| 1788240406 | 15.56° C | 48% | 1012.9 hPa | 0 mm | - | - | - |
| 1788239205 | 15.56° C | 48% | 1012.9 hPa | 0 mm | - | - | - |
| 1788238004 | 16.11° C | 47% | 1013 hPa | 0 mm | - | - | - |
| 1788236803 | 16.11° C | 47% | 1013.1 hPa | 0 mm | - | - | - |
| 1788235602 | 16.11° C | 46% | 1013 hPa | 0 mm | - | - | - |
| 1788234401 | 16.11° C | 45% | 1012.8 hPa | 0 mm | - | - | - |
| 1788233200 | 16.67° C | 45% | 1012.7 hPa | 0 mm | - | - | - |
| 1788231999 | 16.67° C | 44% | 1012.6 hPa | 0 mm | - | - | - |
| 1788230803 | 16.67° C | 43% | 1012.6 hPa | 0 mm | - | - | - |
| 1788229601 | 17.22° C | 43% | 1012.6 hPa | 0 mm | - | - | - |
| 1788225994 | 18.33° C | 39% | 1012.6 hPa | 0 mm | - | - | - |
| 1788224794 | 19.44° C | 37% | 1012.3 hPa | 0 mm | - | - | - |
| 1788223593 | 20° C | 36% | 1012.3 hPa | 0 mm | - | - | - |
| 1788219990 | 22.22° C | 32% | 1011.9 hPa | 0 mm | - | - | - |
| 1788218789 | 22.78° C | 31% | 1011.8 hPa | 0 mm | - | - | - |
| 1788217588 | 23.33° C | 29% | 1011.8 hPa | 0 mm | - | - | - |
| 1788216387 | 23.89° C | 28% | 1011.7 hPa | 0 mm | - | - | - |
* Rain since midnight (hover to see other rain measurements)
** Current wind speed in m/s (hover to see current wind gust speed)